1st Responders/1st Detectors/Storm Spotters Weather Summary for Lewis County, KY

Forecast Maps


Reg. NEXRAD Animation


National Fire Danger: Day 1 & 2 Map

Current NWS Watch/Warnings

SPC Convective Day 1 Outlook


Day 2 Outlook

(Click images to enlarge|Page will refresh every 5 minutes)
UK Ag. Weather Center Desktop Severe Weather Service[HERE]
Lewis County, KY Hazardous Weather Outlook Webcast
(9 AM to 9 PM Mon-Fri)
[Fast]
[Dial-up]


UKAWC 1st Detectors/1st Responders Precision Weather Forecast For LEWIS County, Kentucky
(based on the NWS County Digital Forecast)

ISSUED AT 08:00 UTC ON TUESDAY JUN 27 2017
DAY TUESDAY
EDT 3HR 5A 6A 7A 8A 9A 10A 11A NOON 1P 2P 3P 4P 5P 6P 7P
MAX/MIN -- -- -- 54° -- -- -- -- -- -- -- -- -- -- 72°
TEMP 54° 54° 54° 56° 61° 63° 65° 68° 70° 72° 72° 72° 72° 72° 70°
SKY COVER 77% 63% 46% 23% 13% 16% 22% 25% 28% 30% 29% 27% 23% 19% 14%
Clouds
DEW PT 50° 50° 52° 52° 52° 50° 49° 49° 49° 47° 49° 49° 50° 52° 52°
RH 85% 89% 92% 86% 71% 62% 56% 48% 46% 42% 42% 43% 46% 48% 52%
POP 12HR -- -- -- 20% -- -- -- -- -- -- -- -- -- -- --
RAIN/SNOW (liq.equ) -- -- -- 0.01in -- -- -- -- -- 0.00in -- -- -- -- --
SNOWFALL -- -- -- 0in -- -- -- -- -- 0in -- -- -- -- --
WIND SPEED(MPH) 5 2 2 5 6 6 7 7 7 7 7 6 6 5 2
WIND Gust(MPH) 5 2 2 5 6 6 7 7 7 7 7 6 6 5 2
WIND DIR NW W W W W W W W NW NW NW NW NW NW NW
DEW Mod Dew Hvy Dew Hvy Dew Mod Dew Lgt Dew -- -- -- -- -- -- -- -- -- --
HeatIndex 54 54 54 56 61 63 65 68 70 72 72 72 72 72 70
Rain Showers -- -- -- -- -- -- -- -- -- -- -- -- -- -- --
Thunder Storm -- -- -- -- -- -- -- -- -- -- -- -- -- -- --
WIND CHILL -- -- -- -- -- -- -- -- -- -- -- -- -- -- --
SPRAY COND
DRY COND
LIVESTOCK HEATSTRESS 54.40 54.29 54.21 56.22 60.65 62.12 63.50 65.37 66.67 67.79 67.79 67.86 68.08 68.22 67.04



DAY WEDNESDAY THURSDAY FRIDAY FRI SATURDAY SUNDAY MONDAY
EDT 6HR 8P 9P 10P 11P MIDN 1A 2A 3A 4A 5A 6A 7A 8A 9A 10A 11A NOON 1P 2P 3P 4P 5P 8P 11P 2A 5A 8A 11A 2P 5P 8P 2A 8A 2P 8P 2A 8A 2P 8P 2A 8A 2P 8P 2A 8A 2P 8P
MAX/MIN -- -- -- -- -- -- -- -- -- -- -- -- 52° -- -- -- -- -- -- -- -- 79° -- -- -- -- 63° -- -- 85° -- -- 68° 85° -- -- 67° 81° -- -- 67° 83° -- -- 65° 81° --
TEMP 68° 65° 63° 59° 58° 56° 56° 54° 54° 52° 52° 52° 56° 61° 67° 70° 74° 76° 77° 79° 79° 79° 76° 70° 65° 63° 67° 77° 85° 85° 83° 72° 70° 83° 81° 70° 70° 81° 79° 70° 68° 81° 79° 67° 67° 81° 79°
SKY COVER 11% 8% 7% 5% 5% 4% 4% 4% 4% 4% 5% 5% 6% 6% 5% 5% 5% 5% 5% 5% 6% 7% 10% 16% 22% 26% 30% 38% 43% 41% 37% 54% 60% 60% 57% 62% 75% 77% 80% 76% 73% 48% 45% 48% 61% 56% 56%
Clouds
DEW PT 54° 52° 52° 50° 49° 49° 47° 49° 49° 50° 52° 52° 52° 52° 52° 52° 50° 49° 50° 50° 52° 52° 58° 54° 54° 54° 58° 61° 63° 65° 65° 65° 65° 67° 67° 67° 67° 68° 68° 67° 67° 65° 67° 65° 65° 67° 67°
RH 58% 63% 67% 72% 71% 74% 74% 80% 82% 92% 100% 96% 86% 72% 58% 52% 44% 40% 39% 36% 37% 39% 51% 59% 65% 72% 75% 57% 49% 49% 56% 79% 84% 56% 64% 87% 93% 66% 71% 90% 93% 58% 66% 90% 96% 62% 68%
POP 12HR 14% -- -- -- -- -- -- -- -- -- -- -- 6% -- -- -- -- -- -- -- -- -- 0% -- -- -- 1% -- -- -- 17% -- 29% -- 30% -- 40% -- 50% -- 33% -- 20% -- 19% -- 30%
RAIN/SNOW (liq.equ) 0.00in -- -- -- -- -- 0.00in -- -- -- -- -- 0.00in -- -- -- -- -- 0.00in -- -- -- 0.00in -- 0.00in -- 0.00in -- 0.00in -- 0.01in -- -- -- -- -- -- -- -- -- -- -- -- -- -- -- --
SNOWFALL 0in -- -- -- -- -- 0in -- -- -- -- -- 0in -- -- -- -- -- 0in -- -- -- 0in -- 0in -- 0in -- 0in -- 0in -- -- -- -- -- -- -- -- -- -- -- -- -- -- -- --
WIND SPEED(MPH) 2 2 2 2 2 2 2 2 2 2 1 1 2 2 2 5 5 6 6 6 6 6 6 6 7 7 7 9 10 8 7 7 7 8 6 7 7 7 5 2 2 5 2 2 2 5 2
WIND DIR N N N NE E E SE SE SE SE SE SE SE SE S S S S S S S S S S S S SW SW SW SW S SW SW SW SW SW SW SW SW SW SW SW W S S SW S
HeatIndex 68 65 63 59 58 56 56 54 54 52 52 52 56 61 67 70 74 76 77 79 79 79 76 70 65 63 67 77 86 87 85 72 70 86 83 70 70 84 79 70 68 84 79 67 67 83 79
Rain Showers -- -- -- -- -- -- -- -- -- -- -- -- -- -- -- -- -- -- -- -- -- -- -- -- -- -- -- -- -- -- Slight Chance Slight Chance Slight Chance Chance Chance Chance Chance Chance Chance Slight Chance Slight Chance -- -- -- Slight Chance Chance Chance
Thunder Storm -- -- -- -- -- -- -- -- -- -- -- -- -- -- -- -- -- -- -- -- -- -- -- -- -- -- -- -- -- -- Slight Chance Slight Chance Slight Chance Chance Chance Chance Chance Chance Chance Slight Chance Slight Chance -- -- -- Slight Chance Chance Chance
WIND CHILL -- -- -- -- -- -- -- -- -- -- -- -- -- -- -- -- -- -- -- -- -- -- -- -- -- -- -- -- -- -- -- -- -- -- -- -- -- -- -- -- -- -- -- -- -- -- --
SPRAY COND
DRY COND
LIVESTOCK HEATSTRESS 65.87 63.74 62.24 58.97 58.13 56.40 56.40 54.53 54.48 52.30 52.00 52.15 56.22 60.66 65.11 67.04 69.32 70.32 70.89 71.89 72.00 72.22 71.36 67.47 63.81 62.35 65.87 72.70 77.65 77.65 77.14 70.48 69.01 77.14 76.60 69.20 69.57 76.85 75.78 69.38 67.65 75.87 75.22 66.55 66.82 76.36 75.44

Click on individual weather variable above in left-hand column (ie., TEMP, RH, QPF 12HR) to view state forecast maps






NWS 48 Hr. Forecast Maps,

Regional Hourly Observations For LEWIS County, Kentucky
Issued at 400 AM EDT TUE JUN 27 2017
NORTHEAST KENTUCKY
  
CITY           SKY/WX    TMP DP  RH WIND       PRES   REMARKS
LEXINGTON      LGT RAIN  59  50  72 NW10G17   30.14R                  
COVINGTON      CLEAR     55  49  80 W7        30.09F                  
FRANKFORT      CLOUDY    57  52  83 NW6       30.13R                  


Current NOWCAST not available:
Nowcasts are not issued routinely during fair weather. Only when
precipitation or other significant weather is occuring in this county will these
forecasts be issued. Currently, there is no short term forecast in effect.


Fire Weather Forecast For LEWIS County, KY
Provided by the National Weather Service:

Issued at: Tue Jun 27 04:05:01 EDT 2017

CLOUD COVER                    MClear        PCldy        PCldy
PRECIP TYPE                      None        Tstms        Tstms
CHANCE PRECIP (%)                   0           30           30
TEMP (24H TREND)              75 (-3)      53 (-1)           73
RH % (24H TREND)              41 (+2)      95 (+2)           44
20FTWND-AM(MPH)               Lgt/Var                   Lgt/Var
20FTWND-PM(MPH)                  W  6      Lgt/Var      Lgt/Var
PRECIP AMOUNT                    0.00         0.08         0.05
PRECIP DURATION                                  1            1
MIXING HGT(FT-AGL)               7490                      6860
TRANSPORT WND (MPH)              W 14                     NW 13
LAL                                 1            2            2
HAINES INDEX                        4            4            3

REMARKS...None.

.FORECAST FOR DAYS 3 THROUGH 7...
.TUESDAY NIGHT...Mostly clear. Lows in the lower 50s. Light winds. 
.WEDNESDAY...Sunny. Highs around 80. South winds around 5 mph. 
.THURSDAY...Partly cloudy. A chance of showers and thunderstorms. Lows in
the lower 60s. Highs in the mid 80s. Southwest winds 5 to 10 mph. 
.FRIDAY...Mostly cloudy. A chance of showers and thunderstorms. Lows in
the upper 60s. Highs in the mid 80s. Southwest winds 5 to 10 mph. 
.SATURDAY...Mostly cloudy with a chance of showers and thunderstorms. Lows
in the upper 60s. Highs in the mid 80s. Southwest winds around 5 mph. 
.SUNDAY...Mostly cloudy. A chance of showers and thunderstorms. Lows in
the upper 60s. Highs in the lower 80s. Southwest winds around 5 mph. 

SPC's Fire Weather Web Tool (Excellent!), SPC's Fire Weather Outlooks, NWS Fire Weather WEB, Fire Danger Class Map,
Keetch-Byram Drought Index, ROMAN Web, Haines Index ,
WFAS's 10-hr Dead Fuel Moist., WFAS's 100-hr Dead Fuel Moist., Probablity of Ignition, Visual blackness Map, Palmer Drought Index, HPC's Rainfall Forecast Maps


Hazardous Weather Outlook For LEWIS County, Kentucky
519 AM EDT Mon Jun 26 2017

 DAY ONE  Today and Tonight.

No hazardous weather is expected at this time.

 DAYS TWO THROUGH SEVEN  Tuesday through Sunday.

The probability for widespread hazardous weather is low.

 SPOTTER INFORMATION STATEMENT  

Spotter activation is not expected at this time.

Latest LEWIS County, Kentucky Watches, Warnings and Advisories.
Additional Drought Info.: UKAWC Drought Page, Kentucky Drought Watch


7-Day Forecast For LEWIS County, KY

TODAY
Mostly sunny. Highs in the mid 70s. Northwest winds around 5 mph.

TONIGHT
Clear. Lows in the lower 50s. North winds around 5 mph, becoming southeast around 5 mph after midnight.

WEDNESDAY
Sunny. Highs in the lower 80s. South winds 5 to 10 mph.

WEDNESDAY NIGHT
Mostly clear. Not as cold with lows in the mid 60s. South winds around 5 mph.

THURSDAY
Partly cloudy. Highs in the upper 80s. Southwest winds 10 to 15 mph.

THURSDAY NIGHT
Partly cloudy. Lows in the upper 60s.

FRIDAY
Partly cloudy. A chance of showers and thunderstorms in the afternoon. Highs in the mid 80s. Chance of rain 30 percent.

FRIDAY NIGHT
Partly cloudy with a chance of showers and thunderstorms. Lows in the upper 60s. Chance of rain 50 percent.

SATURDAY
Showers and thunderstorms likely. Highs in the lower 80s. Chance of rain 60 percent.

SATURDAY NIGHT
Mostly cloudy with a chance of showers and thunderstorms in the evening, then partly cloudy after midnight. Lows in the mid 60s. Chance of rain 40 percent.

SUNDAY
Partly cloudy. Highs in the lower 80s.

SUNDAY NIGHT
Partly cloudy. Lows in the mid 60s.

MONDAY
Partly cloudy with a chance of showers and thunderstorms. Highs in the lower 80s. Chance of rain 30 percent.

Ag Weather Center, Department of Biosystems & Agricultural Engineering, University of Kentucky